Year,Month,Day,Hour,Minute,Value (Times are PST for temperature in C)
2010,07,06,00,00,10.40
2010,07,06,00,01,10.40
2010,07,06,00,02,10.30
2010,07,06,00,03,10.30
2010,07,06,00,04,10.30
2010,07,06,00,05,10.30
2010,07,06,00,06,10.30
2010,07,06,00,07,10.30
2010,07,06,00,08,10.30
2010,07,06,00,09,10.30
2010,07,06,00,10,10.30
2010,07,06,00,11,10.30
2010,07,06,00,12,10.30
2010,07,06,00,13,10.30
2010,07,06,00,14,10.30
2010,07,06,00,15,10.30
2010,07,06,00,16,10.30
2010,07,06,00,17,10.20
2010,07,06,00,18,10.20
2010,07,06,00,19,10.20
2010,07,06,00,20,10.20
2010,07,06,00,21,10.20
2010,07,06,00,22,10.20
2010,07,06,00,23,10.20
2010,07,06,00,24,10.20
2010,07,06,00,25,10.30
2010,07,06,00,26,10.30
2010,07,06,00,27,10.30
2010,07,06,00,28,10.30
2010,07,06,00,29,10.30
2010,07,06,00,30,10.30
2010,07,06,00,31,10.20
2010,07,06,00,32,10.20
2010,07,06,00,33,10.20
2010,07,06,00,34,10.20
2010,07,06,00,35,10.20
2010,07,06,00,36,10.20
2010,07,06,00,37,10.20
2010,07,06,00,38,10.10
2010,07,06,00,39,10.10
2010,07,06,00,40,10.10
2010,07,06,00,41,10.10
2010,07,06,00,42,10.10
2010,07,06,00,43,10.10
2010,07,06,00,44,10.10
2010,07,06,00,45,10.00
2010,07,06,00,46,10.00
2010,07,06,00,47,10.00
2010,07,06,00,48,10.00
2010,07,06,00,49,10.00
2010,07,06,00,50,10.10
2010,07,06,00,51,10.10
2010,07,06,00,52,10.10
2010,07,06,00,53,10.10
2010,07,06,00,54,10.00
2010,07,06,00,55,10.00
2010,07,06,00,56,10.00
2010,07,06,00,57,10.00
2010,07,06,00,58,10.00
2010,07,06,00,59,10.00
2010,07,06,01,00,9.90
2010,07,06,01,01,9.90
2010,07,06,01,02,9.90
2010,07,06,01,03,9.90
2010,07,06,01,04,9.90
2010,07,06,01,05,9.90
2010,07,06,01,06,9.90
2010,07,06,01,07,9.90
2010,07,06,01,08,9.90
2010,07,06,01,09,10.00
2010,07,06,01,10,10.00
2010,07,06,01,11,10.00
2010,07,06,01,12,10.00
2010,07,06,01,13,10.00
2010,07,06,01,14,10.00
2010,07,06,01,15,10.00
2010,07,06,01,16,10.00
2010,07,06,01,17,10.00
2010,07,06,01,18,10.00
2010,07,06,01,19,10.00
2010,07,06,01,20,10.00
2010,07,06,01,21,10.00
2010,07,06,01,22,9.90
2010,07,06,01,23,10.00
2010,07,06,01,24,10.00
2010,07,06,01,25,9.90
2010,07,06,01,26,9.90
2010,07,06,01,27,9.90
2010,07,06,01,28,10.00
2010,07,06,01,29,10.00
2010,07,06,01,30,9.90
2010,07,06,01,31,9.90
2010,07,06,01,32,9.90
2010,07,06,01,33,9.90
2010,07,06,01,34,9.90
2010,07,06,01,35,9.90
2010,07,06,01,36,9.90
2010,07,06,01,37,10.00
2010,07,06,01,38,10.00
2010,07,06,01,39,10.00
2010,07,06,01,40,10.00
2010,07,06,01,41,10.00
2010,07,06,01,42,10.00
2010,07,06,01,43,10.00
2010,07,06,01,44,10.00
2010,07,06,01,45,10.00
2010,07,06,01,46,10.00
2010,07,06,01,47,10.00
2010,07,06,01,48,10.00
2010,07,06,01,49,10.00
2010,07,06,01,50,10.00
2010,07,06,01,51,9.90
2010,07,06,01,52,9.90
2010,07,06,01,53,9.90
2010,07,06,01,54,9.90
2010,07,06,01,55,9.90
2010,07,06,01,56,9.90
2010,07,06,01,57,9.90
2010,07,06,01,58,9.80
2010,07,06,01,59,9.80
2010,07,06,02,00,9.80
2010,07,06,02,01,9.80
2010,07,06,02,02,9.80
2010,07,06,02,03,9.80
2010,07,06,02,04,9.80
2010,07,06,02,05,9.80
2010,07,06,02,06,9.80
2010,07,06,02,07,9.70
2010,07,06,02,08,9.70
2010,07,06,02,09,9.70
2010,07,06,02,10,9.70
2010,07,06,02,11,9.70
2010,07,06,02,12,9.70
2010,07,06,02,13,9.70
2010,07,06,02,14,9.70
2010,07,06,02,15,9.70
2010,07,06,02,16,9.70
2010,07,06,02,17,9.70
2010,07,06,02,18,9.70
2010,07,06,02,19,9.70
2010,07,06,02,20,9.70
2010,07,06,02,21,9.70
2010,07,06,02,22,9.70
2010,07,06,02,23,9.70
2010,07,06,02,24,9.70
2010,07,06,02,25,9.70
2010,07,06,02,26,9.70
2010,07,06,02,27,9.70
2010,07,06,02,28,9.70
2010,07,06,02,29,9.70
2010,07,06,02,30,9.70
2010,07,06,02,31,9.70
2010,07,06,02,32,9.70
2010,07,06,02,33,9.70
2010,07,06,02,34,9.70
2010,07,06,02,35,9.70
2010,07,06,02,36,9.70
2010,07,06,02,37,9.70
2010,07,06,02,38,9.80
2010,07,06,02,39,9.80
2010,07,06,02,40,9.80
2010,07,06,02,41,9.80
2010,07,06,02,42,9.80
2010,07,06,02,43,9.80
2010,07,06,02,44,9.80
2010,07,06,02,45,9.80
2010,07,06,02,46,9.80
2010,07,06,02,47,9.80
2010,07,06,02,48,9.80
2010,07,06,02,49,9.80
2010,07,06,02,50,9.80
2010,07,06,02,51,9.80
2010,07,06,02,52,9.90
2010,07,06,02,53,9.90
2010,07,06,02,54,9.80
2010,07,06,02,55,9.80
2010,07,06,02,56,9.80
2010,07,06,02,57,9.80
2010,07,06,02,58,9.80
2010,07,06,02,59,9.80
2010,07,06,03,00,9.80
2010,07,06,03,01,9.80
2010,07,06,03,02,9.80
2010,07,06,03,03,9.80
2010,07,06,03,04,9.80
2010,07,06,03,05,9.80
2010,07,06,03,06,9.80
2010,07,06,03,07,9.80
2010,07,06,03,08,9.80
2010,07,06,03,09,9.80
2010,07,06,03,10,9.80
2010,07,06,03,11,9.80
2010,07,06,03,12,9.80
2010,07,06,03,13,9.80
2010,07,06,03,14,9.80
2010,07,06,03,15,9.80
2010,07,06,03,16,9.80
2010,07,06,03,17,9.80
2010,07,06,03,18,9.80
2010,07,06,03,19,9.80
2010,07,06,03,20,9.90
2010,07,06,03,21,9.90
2010,07,06,03,22,9.90
2010,07,06,03,23,10.00
2010,07,06,03,24,10.00
2010,07,06,03,25,10.10
2010,07,06,03,26,10.20
2010,07,06,03,27,10.20
2010,07,06,03,28,10.20
2010,07,06,03,29,10.20
2010,07,06,03,30,10.20
2010,07,06,03,31,10.30
2010,07,06,03,32,10.30
2010,07,06,03,33,10.30
2010,07,06,03,34,10.30
2010,07,06,03,35,10.30
2010,07,06,03,36,10.30
2010,07,06,03,37,10.30
2010,07,06,03,38,10.30
2010,07,06,03,39,10.30
2010,07,06,03,40,10.30
2010,07,06,03,41,10.30
2010,07,06,03,42,10.30
2010,07,06,03,43,10.20
2010,07,06,03,44,10.20
2010,07,06,03,45,10.20
2010,07,06,03,46,10.20
2010,07,06,03,47,10.20
2010,07,06,03,48,10.30
2010,07,06,03,49,10.30
2010,07,06,03,50,10.40
2010,07,06,03,51,10.50
2010,07,06,03,52,10.50
2010,07,06,03,53,10.60
2010,07,06,03,54,10.60
2010,07,06,03,55,10.60
2010,07,06,03,56,10.70
2010,07,06,03,57,10.70
2010,07,06,03,58,10.70
2010,07,06,03,59,10.80
2010,07,06,04,00,10.80
2010,07,06,04,01,10.90
2010,07,06,04,02,11.20
2010,07,06,04,03,11.40
2010,07,06,04,04,11.60
2010,07,06,04,05,11.60
2010,07,06,04,06,11.70
2010,07,06,04,07,11.80
2010,07,06,04,08,11.80
2010,07,06,04,09,11.90
2010,07,06,04,10,12.00
2010,07,06,04,11,12.10
2010,07,06,04,12,12.10
2010,07,06,04,13,12.20
2010,07,06,04,14,12.30
2010,07,06,04,15,12.30
2010,07,06,04,16,12.30
2010,07,06,04,17,12.30
2010,07,06,04,18,12.40
2010,07,06,04,19,12.40
2010,07,06,04,20,12.40
2010,07,06,04,21,12.40
2010,07,06,04,22,12.40
2010,07,06,04,23,12.40
2010,07,06,04,24,12.40
2010,07,06,04,25,12.40
2010,07,06,04,26,12.40
2010,07,06,04,27,12.50
2010,07,06,04,28,12.50
2010,07,06,04,29,12.50
2010,07,06,04,30,12.50
2010,07,06,04,31,12.50
2010,07,06,04,32,12.50
2010,07,06,04,33,12.40
2010,07,06,04,34,12.40
2010,07,06,04,35,12.40
2010,07,06,04,36,12.40
2010,07,06,04,37,12.40
2010,07,06,04,38,12.40
2010,07,06,04,39,12.40
2010,07,06,04,40,12.40
2010,07,06,04,41,12.40
2010,07,06,04,42,12.40
2010,07,06,04,43,12.40
2010,07,06,04,44,12.30
2010,07,06,04,45,12.30
2010,07,06,04,46,12.30
2010,07,06,04,47,12.30
2010,07,06,04,48,12.30
2010,07,06,04,49,12.30
2010,07,06,04,50,12.30
2010,07,06,04,51,12.30
2010,07,06,04,52,12.30
2010,07,06,04,53,12.30
2010,07,06,04,54,12.30
2010,07,06,04,55,12.20
2010,07,06,04,56,12.20
2010,07,06,04,57,12.20
2010,07,06,04,58,12.30
2010,07,06,04,59,12.40
2010,07,06,05,00,12.50
2010,07,06,05,01,12.50
2010,07,06,05,02,12.60
2010,07,06,05,03,12.70
2010,07,06,05,04,12.70
2010,07,06,05,05,12.80
2010,07,06,05,06,12.90
2010,07,06,05,07,12.90
2010,07,06,05,08,13.00
2010,07,06,05,09,13.00
2010,07,06,05,10,13.00
2010,07,06,05,11,13.10
2010,07,06,05,12,13.00
2010,07,06,05,13,13.10
2010,07,06,05,14,13.10
2010,07,06,05,15,13.00
2010,07,06,05,16,13.00
2010,07,06,05,17,13.00
2010,07,06,05,18,12.90
2010,07,06,05,19,13.00
2010,07,06,05,20,13.00
2010,07,06,05,21,12.90
2010,07,06,05,22,12.90
2010,07,06,05,23,12.90
2010,07,06,05,24,12.80
2010,07,06,05,25,12.90
2010,07,06,05,26,12.90
2010,07,06,05,27,13.00
2010,07,06,05,28,13.00
2010,07,06,05,29,13.10
2010,07,06,05,30,13.10
2010,07,06,05,31,13.20
2010,07,06,05,32,13.20
2010,07,06,05,33,13.30
2010,07,06,05,34,13.40
2010,07,06,05,35,13.40
2010,07,06,05,36,13.40
2010,07,06,05,37,13.50
2010,07,06,05,38,13.60
2010,07,06,05,39,13.60
2010,07,06,05,40,13.60
2010,07,06,05,41,13.70
2010,07,06,05,42,13.70
2010,07,06,05,43,13.70
2010,07,06,05,44,13.70
2010,07,06,05,45,13.70
2010,07,06,05,46,13.60
2010,07,06,05,47,13.60
2010,07,06,05,48,13.60
2010,07,06,05,49,13.60
2010,07,06,05,50,13.60
2010,07,06,05,51,13.50
2010,07,06,05,52,13.50
2010,07,06,05,53,13.40
2010,07,06,05,54,13.40
2010,07,06,05,55,13.40
2010,07,06,05,56,13.40
2010,07,06,05,57,13.40
2010,07,06,05,58,13.50
2010,07,06,05,59,13.50
2010,07,06,06,00,13.50
2010,07,06,06,01,13.50
2010,07,06,06,02,13.50
2010,07,06,06,03,13.50
2010,07,06,06,04,13.50
2010,07,06,06,05,13.50
2010,07,06,06,06,13.50
2010,07,06,06,07,13.60
2010,07,06,06,08,13.50
2010,07,06,06,09,13.50
2010,07,06,06,10,13.50
2010,07,06,06,11,13.40
2010,07,06,06,12,13.40
2010,07,06,06,13,13.40
2010,07,06,06,14,13.40
2010,07,06,06,15,13.40
2010,07,06,06,16,13.30
2010,07,06,06,17,13.30
2010,07,06,06,18,13.30
2010,07,06,06,19,13.30
2010,07,06,06,20,13.40
2010,07,06,06,21,13.40
2010,07,06,06,22,13.40
2010,07,06,06,23,13.40
2010,07,06,06,24,13.40
2010,07,06,06,25,13.30
2010,07,06,06,26,13.30
2010,07,06,06,27,13.30
2010,07,06,06,28,13.20
2010,07,06,06,29,13.30
2010,07,06,06,30,13.40
2010,07,06,06,31,13.40
2010,07,06,06,32,13.40
2010,07,06,06,33,13.40
2010,07,06,06,34,13.40
2010,07,06,06,35,13.40
2010,07,06,06,36,13.50
2010,07,06,06,37,13.60
2010,07,06,06,38,13.80
2010,07,06,06,39,13.80
2010,07,06,06,40,13.90
2010,07,06,06,41,13.90
2010,07,06,06,42,14.10
2010,07,06,06,43,14.10
2010,07,06,06,44,14.20
2010,07,06,06,45,14.20
2010,07,06,06,46,14.30
2010,07,06,06,47,14.40
2010,07,06,06,48,14.50
2010,07,06,06,49,14.50
2010,07,06,06,50,14.60
2010,07,06,06,51,14.60
2010,07,06,06,52,14.70
2010,07,06,06,53,14.80
2010,07,06,06,54,14.80
2010,07,06,06,55,14.80
2010,07,06,06,56,14.80
2010,07,06,06,57,14.80
2010,07,06,06,58,14.90
2010,07,06,06,59,14.90
2010,07,06,07,00,15.00
2010,07,06,07,01,15.00
2010,07,06,07,02,15.00
2010,07,06,07,03,15.00
2010,07,06,07,04,15.10
2010,07,06,07,05,15.20
2010,07,06,07,06,15.20
2010,07,06,07,07,15.30
2010,07,06,07,08,15.30
2010,07,06,07,09,15.30
2010,07,06,07,10,15.40
2010,07,06,07,11,15.40
2010,07,06,07,12,15.50
2010,07,06,07,13,15.50
2010,07,06,07,14,15.50
2010,07,06,07,15,15.60
2010,07,06,07,16,15.60
2010,07,06,07,17,15.60
2010,07,06,07,18,15.60
2010,07,06,07,19,15.70
2010,07,06,07,20,15.70
2010,07,06,07,21,15.80
2010,07,06,07,22,15.80
2010,07,06,07,23,15.90
2010,07,06,07,24,15.90
2010,07,06,07,25,15.90
2010,07,06,07,26,16.00
2010,07,06,07,27,16.00
2010,07,06,07,28,16.10
2010,07,06,07,29,16.10
2010,07,06,07,30,16.20
2010,07,06,07,31,16.20
2010,07,06,07,32,16.20
2010,07,06,07,33,16.30
2010,07,06,07,34,16.40
2010,07,06,07,35,16.40
2010,07,06,07,36,16.40
2010,07,06,07,37,16.40
2010,07,06,07,38,16.40
2010,07,06,07,39,16.40
2010,07,06,07,40,16.30
2010,07,06,07,41,16.30
2010,07,06,07,42,16.30
2010,07,06,07,43,16.30
2010,07,06,07,44,16.30
2010,07,06,07,45,16.30
2010,07,06,07,46,16.30
2010,07,06,07,47,16.30
2010,07,06,07,48,16.30
2010,07,06,07,49,16.30
2010,07,06,07,50,16.30
2010,07,06,07,51,16.30
2010,07,06,07,52,16.30
2010,07,06,07,53,16.40
2010,07,06,07,54,16.40
2010,07,06,07,55,16.50
2010,07,06,07,56,16.50
2010,07,06,07,57,16.60
2010,07,06,07,58,16.60
2010,07,06,07,59,16.60
2010,07,06,08,00,16.70
2010,07,06,08,01,16.70
2010,07,06,08,02,16.70
2010,07,06,08,03,16.70
2010,07,06,08,04,16.70
2010,07,06,08,05,16.70
2010,07,06,08,06,16.60
2010,07,06,08,07,16.60
2010,07,06,08,08,16.60
2010,07,06,08,09,16.60
2010,07,06,08,10,16.60
2010,07,06,08,11,16.60
2010,07,06,08,12,16.60
2010,07,06,08,13,16.60
2010,07,06,08,14,16.70
2010,07,06,08,15,16.70
2010,07,06,08,16,16.70
2010,07,06,08,17,16.80
2010,07,06,08,18,16.80
2010,07,06,08,19,16.90
2010,07,06,08,20,16.90
2010,07,06,08,21,17.00
2010,07,06,08,22,17.00
2010,07,06,08,23,17.00
2010,07,06,08,24,17.00
2010,07,06,08,25,17.10
2010,07,06,08,26,17.10
2010,07,06,08,27,17.10
2010,07,06,08,28,17.10
2010,07,06,08,29,17.10
2010,07,06,08,30,17.00
2010,07,06,08,31,16.90
2010,07,06,08,32,16.90
2010,07,06,08,33,16.90
2010,07,06,08,34,17.00
2010,07,06,08,35,17.00
2010,07,06,08,36,17.10
2010,07,06,08,37,17.20
2010,07,06,08,38,17.20
2010,07,06,08,39,17.30
2010,07,06,08,40,17.30
2010,07,06,08,41,17.40
2010,07,06,08,42,17.40
2010,07,06,08,43,17.40
2010,07,06,08,44,17.40
2010,07,06,08,45,17.40
2010,07,06,08,46,17.40
2010,07,06,08,47,17.40
2010,07,06,08,48,17.40
2010,07,06,08,49,17.30
2010,07,06,08,50,17.30
2010,07,06,08,51,17.20
2010,07,06,08,52,17.10
2010,07,06,08,53,17.10
2010,07,06,08,54,17.10
2010,07,06,08,55,17.20
2010,07,06,08,56,17.20
2010,07,06,08,57,17.20
2010,07,06,08,58,17.20
2010,07,06,08,59,17.20
2010,07,06,09,00,17.20
2010,07,06,09,01,17.30
2010,07,06,09,02,17.40
2010,07,06,09,03,17.40
2010,07,06,09,04,17.40
2010,07,06,09,05,17.50
2010,07,06,09,06,17.50
2010,07,06,09,07,17.40
2010,07,06,09,08,17.40
2010,07,06,09,09,17.40
2010,07,06,09,10,17.40
2010,07,06,09,11,17.40
2010,07,06,09,12,17.40
2010,07,06,09,13,17.40
2010,07,06,09,14,17.50
2010,07,06,09,15,17.60
2010,07,06,09,16,17.50
2010,07,06,09,17,17.40
2010,07,06,09,18,17.40
2010,07,06,09,19,17.50
2010,07,06,09,20,17.50
2010,07,06,09,21,17.60
2010,07,06,09,22,17.70
2010,07,06,09,23,17.70
2010,07,06,09,24,17.90
2010,07,06,09,25,18.00
2010,07,06,09,26,18.10
2010,07,06,09,27,18.10
2010,07,06,09,28,18.10
2010,07,06,09,29,18.10
2010,07,06,09,30,18.00
2010,07,06,09,31,18.00
2010,07,06,09,32,17.90
2010,07,06,09,33,17.90
2010,07,06,09,34,17.90
2010,07,06,09,35,17.80
2010,07,06,09,36,17.80
2010,07,06,09,37,17.80
2010,07,06,09,38,17.70
2010,07,06,09,39,17.70
2010,07,06,09,40,17.70
2010,07,06,09,41,17.70
2010,07,06,09,42,17.70
2010,07,06,09,43,17.60
2010,07,06,09,44,17.60
2010,07,06,09,45,17.50
2010,07,06,09,46,17.50
2010,07,06,09,47,17.50
2010,07,06,09,48,17.50
2010,07,06,09,49,17.60
2010,07,06,09,50,17.60
2010,07,06,09,51,17.70
2010,07,06,09,52,17.80
2010,07,06,09,53,17.90
2010,07,06,09,54,17.90
2010,07,06,09,55,17.90
2010,07,06,09,56,17.80
2010,07,06,09,57,17.80
2010,07,06,09,58,17.80
2010,07,06,09,59,17.70
2010,07,06,10,00,17.70
2010,07,06,10,01,17.70
2010,07,06,10,02,17.70
2010,07,06,10,03,17.70
2010,07,06,10,04,17.70
2010,07,06,10,05,17.80
2010,07,06,10,06,17.80
2010,07,06,10,07,17.80
2010,07,06,10,08,17.90
2010,07,06,10,09,17.80
2010,07,06,10,10,17.90
2010,07,06,10,11,17.80
2010,07,06,10,12,17.80
2010,07,06,10,13,17.90
2010,07,06,10,14,17.90
2010,07,06,10,15,17.90
2010,07,06,10,16,17.90
2010,07,06,10,17,18.00
2010,07,06,10,18,18.10
2010,07,06,10,19,18.20
2010,07,06,10,20,18.30
2010,07,06,10,21,18.40
2010,07,06,10,22,18.50
2010,07,06,10,23,18.40
2010,07,06,10,24,18.40
2010,07,06,10,25,18.40
2010,07,06,10,26,18.30
2010,07,06,10,27,18.30
2010,07,06,10,28,18.40
2010,07,06,10,29,18.50
2010,07,06,10,30,18.60
2010,07,06,10,31,18.70
2010,07,06,10,32,18.80
2010,07,06,10,33,18.80
2010,07,06,10,34,18.70
2010,07,06,10,35,18.60
2010,07,06,10,36,18.60
2010,07,06,10,37,18.60
2010,07,06,10,38,18.70
2010,07,06,10,39,18.70
2010,07,06,10,40,18.70
2010,07,06,10,41,18.60
2010,07,06,10,42,18.50
2010,07,06,10,43,18.50
2010,07,06,10,44,18.50
2010,07,06,10,45,18.60
2010,07,06,10,46,18.70
2010,07,06,10,47,18.80
2010,07,06,10,48,18.90
2010,07,06,10,49,18.90
2010,07,06,10,50,19.00
2010,07,06,10,51,19.00
2010,07,06,10,52,19.00
2010,07,06,10,53,19.10
2010,07,06,10,54,19.20
2010,07,06,10,55,19.30
2010,07,06,10,56,19.30
2010,07,06,10,57,19.30
2010,07,06,10,58,19.30
2010,07,06,10,59,19.20
2010,07,06,11,00,19.30
2010,07,06,11,01,19.30
2010,07,06,11,02,19.30
2010,07,06,11,03,19.50
2010,07,06,11,04,19.50
2010,07,06,11,05,19.60
2010,07,06,11,06,19.50
2010,07,06,11,07,19.40
2010,07,06,11,08,19.30
2010,07,06,11,09,19.30
2010,07,06,11,10,19.40
2010,07,06,11,11,19.50
2010,07,06,11,12,19.60
2010,07,06,11,13,19.70
2010,07,06,11,14,19.60
2010,07,06,11,15,19.60
2010,07,06,11,16,19.60
2010,07,06,11,17,19.50
2010,07,06,11,18,19.40
2010,07,06,11,19,19.40
2010,07,06,11,20,19.40
2010,07,06,11,21,19.40
2010,07,06,11,22,19.40
2010,07,06,11,23,19.40
2010,07,06,11,24,19.40
2010,07,06,11,25,19.50
2010,07,06,11,26,19.50
2010,07,06,11,27,19.50
2010,07,06,11,28,19.60
2010,07,06,11,29,19.60
2010,07,06,11,30,19.60
2010,07,06,11,31,19.60
2010,07,06,11,32,19.60
2010,07,06,11,33,19.70
2010,07,06,11,34,19.70
2010,07,06,11,35,19.60
2010,07,06,11,36,19.60
2010,07,06,11,37,19.60
2010,07,06,11,38,19.60
2010,07,06,11,39,19.70
2010,07,06,11,40,19.80
2010,07,06,11,41,19.80
2010,07,06,11,42,19.90
2010,07,06,11,43,20.00
2010,07,06,11,44,20.00
2010,07,06,11,45,20.00
2010,07,06,11,46,20.00
2010,07,06,11,47,20.10
2010,07,06,11,48,20.10
2010,07,06,11,49,20.10
2010,07,06,11,50,20.00
2010,07,06,11,51,20.10
2010,07,06,11,52,20.00
2010,07,06,11,53,19.90
2010,07,06,11,54,19.90
2010,07,06,11,55,19.90
2010,07,06,11,56,20.00
2010,07,06,11,57,20.00
2010,07,06,11,58,20.10
2010,07,06,11,59,20.20
2010,07,06,12,00,20.30
2010,07,06,12,01,20.30
2010,07,06,12,02,20.30
2010,07,06,12,03,20.30
2010,07,06,12,04,20.30
2010,07,06,12,05,20.30
2010,07,06,12,06,20.30
2010,07,06,12,07,20.20
2010,07,06,12,08,20.10
2010,07,06,12,09,20.10
2010,07,06,12,10,20.10
2010,07,06,12,11,20.00
2010,07,06,12,12,20.10
2010,07,06,12,13,20.10
2010,07,06,12,14,20.10
2010,07,06,12,15,20.10
2010,07,06,12,16,20.20
2010,07,06,12,17,20.30
2010,07,06,12,18,20.40
2010,07,06,12,19,20.40
2010,07,06,12,20,20.40
2010,07,06,12,21,20.30
2010,07,06,12,22,20.30
2010,07,06,12,23,20.30
2010,07,06,12,24,20.30
2010,07,06,12,25,20.30
2010,07,06,12,26,20.30
2010,07,06,12,27,20.30
2010,07,06,12,28,20.30
2010,07,06,12,29,20.40
2010,07,06,12,30,20.40
2010,07,06,12,31,20.30
2010,07,06,12,32,20.30
2010,07,06,12,33,20.30
2010,07,06,12,34,20.30
2010,07,06,12,35,20.30
2010,07,06,12,36,20.40
2010,07,06,12,37,20.40
2010,07,06,12,38,20.50
2010,07,06,12,39,20.50
2010,07,06,12,40,20.50
2010,07,06,12,41,20.40
2010,07,06,12,42,20.40
2010,07,06,12,43,20.30
2010,07,06,12,44,20.30
2010,07,06,12,45,20.30
2010,07,06,12,46,20.40
2010,07,06,12,47,20.40
2010,07,06,12,48,20.50
2010,07,06,12,49,20.60
2010,07,06,12,50,20.60
2010,07,06,12,51,20.60
2010,07,06,12,52,20.60
2010,07,06,12,53,20.60
2010,07,06,12,54,20.60
2010,07,06,12,55,20.60
2010,07,06,12,56,20.70
2010,07,06,12,57,20.70
2010,07,06,12,58,20.70
2010,07,06,12,59,20.70
2010,07,06,13,00,20.70
2010,07,06,13,01,20.70
2010,07,06,13,02,20.70
2010,07,06,13,03,20.70
2010,07,06,13,04,20.60
2010,07,06,13,05,20.60
2010,07,06,13,06,20.70
2010,07,06,13,07,20.70
2010,07,06,13,08,20.70
2010,07,06,13,09,20.80
2010,07,06,13,10,20.80
2010,07,06,13,11,20.70
2010,07,06,13,12,20.70
2010,07,06,13,13,20.60
2010,07,06,13,14,20.60
2010,07,06,13,15,20.60
2010,07,06,13,16,20.70
2010,07,06,13,17,20.70
2010,07,06,13,18,20.70
2010,07,06,13,19,20.70
2010,07,06,13,20,20.70
2010,07,06,13,21,20.70
2010,07,06,13,22,20.70
2010,07,06,13,23,20.80
2010,07,06,13,24,20.80
2010,07,06,13,25,20.90
2010,07,06,13,26,20.90
2010,07,06,13,27,21.00
2010,07,06,13,28,21.20
2010,07,06,13,29,21.30
2010,07,06,13,30,21.30
2010,07,06,13,31,21.30
2010,07,06,13,32,21.30
2010,07,06,13,33,21.30
2010,07,06,13,34,21.30
2010,07,06,13,35,21.30
2010,07,06,13,36,21.30
2010,07,06,13,37,21.30
2010,07,06,13,38,21.30
2010,07,06,13,39,21.30
2010,07,06,13,40,21.30
2010,07,06,13,41,21.40
2010,07,06,13,42,21.50
2010,07,06,13,43,21.50
2010,07,06,13,44,21.50
2010,07,06,13,45,21.50
2010,07,06,13,46,21.60
2010,07,06,13,47,21.60
2010,07,06,13,48,21.70
2010,07,06,13,49,21.80
2010,07,06,13,50,21.80
2010,07,06,13,51,21.80
2010,07,06,13,52,21.90
2010,07,06,13,53,21.90
2010,07,06,13,54,21.90
2010,07,06,13,55,21.90
2010,07,06,13,56,21.90
2010,07,06,13,57,21.90
2010,07,06,13,58,21.90
2010,07,06,13,59,21.90
2010,07,06,14,00,21.90
2010,07,06,14,01,22.00
2010,07,06,14,02,22.20
2010,07,06,14,03,22.30
2010,07,06,14,04,22.30
2010,07,06,14,05,22.40
2010,07,06,14,06,22.40
2010,07,06,14,07,22.50
2010,07,06,14,08,22.50
2010,07,06,14,09,22.60
2010,07,06,14,10,22.60
2010,07,06,14,11,22.70
2010,07,06,14,12,22.70
2010,07,06,14,13,22.80
2010,07,06,14,14,22.80
2010,07,06,14,15,22.80
2010,07,06,14,16,22.70
2010,07,06,14,17,22.70
2010,07,06,14,18,22.80
2010,07,06,14,19,22.80
2010,07,06,14,20,22.80
2010,07,06,14,21,22.80
2010,07,06,14,22,22.90
2010,07,06,14,23,22.90
2010,07,06,14,24,23.10
2010,07,06,14,25,23.20
2010,07,06,14,26,23.20
2010,07,06,14,27,23.20
2010,07,06,14,28,23.20
2010,07,06,14,29,23.20
2010,07,06,14,30,23.20
2010,07,06,14,31,23.20
2010,07,06,14,32,23.20
2010,07,06,14,33,23.20
2010,07,06,14,34,23.10
2010,07,06,14,35,23.10
2010,07,06,14,36,23.10
2010,07,06,14,37,23.10
2010,07,06,14,38,23.10
2010,07,06,14,39,23.10
2010,07,06,14,40,23.10
2010,07,06,14,41,23.10
2010,07,06,14,42,23.20
2010,07,06,14,43,23.20
2010,07,06,14,44,23.30
2010,07,06,14,45,23.30
2010,07,06,14,46,23.30
2010,07,06,14,47,23.20
2010,07,06,14,48,23.20
2010,07,06,14,49,23.10
2010,07,06,14,50,23.00
2010,07,06,14,51,23.00
2010,07,06,14,52,23.10
2010,07,06,14,53,23.10
2010,07,06,14,54,23.20
2010,07,06,14,55,23.20
2010,07,06,14,56,23.20
2010,07,06,14,57,23.20
2010,07,06,14,58,23.10
2010,07,06,14,59,23.00
2010,07,06,15,00,22.90
2010,07,06,15,01,22.90
2010,07,06,15,02,22.80
2010,07,06,15,03,22.80
2010,07,06,15,04,22.70
2010,07,06,15,05,22.70
2010,07,06,15,06,22.70
2010,07,06,15,07,22.70
2010,07,06,15,08,22.80
2010,07,06,15,09,22.80
2010,07,06,15,10,22.80
2010,07,06,15,11,22.80
2010,07,06,15,12,22.80
2010,07,06,15,13,22.90
2010,07,06,15,14,22.90
2010,07,06,15,15,22.80
2010,07,06,15,16,22.80
2010,07,06,15,17,22.90
2010,07,06,15,18,22.90
2010,07,06,15,19,22.80
2010,07,06,15,20,22.80
2010,07,06,15,21,22.80
2010,07,06,15,22,22.80
2010,07,06,15,23,22.80
2010,07,06,15,24,22.70
2010,07,06,15,25,22.80
2010,07,06,15,26,22.80
2010,07,06,15,27,22.80
2010,07,06,15,28,22.90
2010,07,06,15,29,22.90
2010,07,06,15,30,23.00
2010,07,06,15,31,23.10
2010,07,06,15,32,23.10
2010,07,06,15,33,23.10
2010,07,06,15,34,23.00
2010,07,06,15,35,23.00
2010,07,06,15,36,23.00
2010,07,06,15,37,23.00
2010,07,06,15,38,23.00
2010,07,06,15,39,22.90
2010,07,06,15,40,22.90
2010,07,06,15,41,22.90
2010,07,06,15,42,22.90
2010,07,06,15,43,22.80
2010,07,06,15,44,22.90
2010,07,06,15,45,22.90
2010,07,06,15,46,23.00
2010,07,06,15,47,23.10
2010,07,06,15,48,23.10
2010,07,06,15,49,23.10
2010,07,06,15,50,23.20
2010,07,06,15,51,23.20
2010,07,06,15,52,23.10
2010,07,06,15,53,23.10
2010,07,06,15,54,23.00
2010,07,06,15,55,23.00
2010,07,06,15,56,22.90
2010,07,06,15,57,22.90
2010,07,06,15,58,22.90
2010,07,06,15,59,23.00
2010,07,06,16,00,23.00
2010,07,06,16,01,23.10
2010,07,06,16,02,23.10
2010,07,06,16,03,23.10
2010,07,06,16,04,23.10
2010,07,06,16,05,23.10
2010,07,06,16,06,23.20
2010,07,06,16,07,23.30
2010,07,06,16,08,23.40
2010,07,06,16,09,23.40
2010,07,06,16,10,23.50
2010,07,06,16,11,23.50
2010,07,06,16,12,23.60
2010,07,06,16,13,23.60
2010,07,06,16,14,23.60
2010,07,06,16,15,23.60
2010,07,06,16,16,23.70
2010,07,06,16,17,23.70
2010,07,06,16,18,23.80
2010,07,06,16,19,23.90
2010,07,06,16,20,24.00
2010,07,06,16,21,24.10
2010,07,06,16,22,24.20
2010,07,06,16,23,24.30
2010,07,06,16,24,24.40
2010,07,06,16,25,24.40
2010,07,06,16,26,24.30
2010,07,06,16,27,24.30
2010,07,06,16,28,24.30
2010,07,06,16,29,24.30
2010,07,06,16,30,24.40
2010,07,06,16,31,24.40
2010,07,06,16,32,24.50
2010,07,06,16,33,24.50
2010,07,06,16,34,24.50
2010,07,06,16,35,24.50
2010,07,06,16,36,24.50
2010,07,06,16,37,24.50
2010,07,06,16,38,24.50
2010,07,06,16,39,24.60
2010,07,06,16,40,24.60
2010,07,06,16,41,24.60
2010,07,06,16,42,24.60
2010,07,06,16,43,24.70
2010,07,06,16,44,24.80
2010,07,06,16,45,24.80
2010,07,06,16,46,24.90
2010,07,06,16,47,25.00
2010,07,06,16,48,25.00
2010,07,06,16,49,25.10
2010,07,06,16,50,25.10
2010,07,06,16,51,25.00
2010,07,06,16,52,24.90
2010,07,06,16,53,24.80
2010,07,06,16,54,24.80
2010,07,06,16,55,24.80
2010,07,06,16,56,24.70
2010,07,06,16,57,24.70
2010,07,06,16,58,24.70
2010,07,06,16,59,24.60
2010,07,06,17,00,24.70
2010,07,06,17,01,24.70
2010,07,06,17,02,24.80
2010,07,06,17,03,24.80
2010,07,06,17,04,24.90
2010,07,06,17,05,24.90
2010,07,06,17,06,24.90
2010,07,06,17,07,24.90
2010,07,06,17,08,24.90
2010,07,06,17,09,24.90
2010,07,06,17,10,24.90
2010,07,06,17,11,24.90
2010,07,06,17,12,24.90
2010,07,06,17,13,24.80
2010,07,06,17,14,24.80
2010,07,06,17,15,24.90
2010,07,06,17,16,25.00
2010,07,06,17,17,25.10
2010,07,06,17,18,25.10
2010,07,06,17,19,25.20
2010,07,06,17,20,25.20
2010,07,06,17,21,25.30
2010,07,06,17,22,25.30
2010,07,06,17,23,25.40
2010,07,06,17,24,25.40